Regional Weather Roundup
Issued by NWS

Home | Current Version | Previous Version | Text Only | Print | Product List | Glossary On
Versions: 1 2 3 4 5 6 7 8 9 10 11 12 13 14 15 16 17 18 19 20 21 22 23 24 25 26 27 28 29 30 31 32 33 34 35 36 37 38 39 40 41 42 43 44 45 46 47 48 49 50
000
ASUS45 KREV 040310
RWRNV
NEVADA REGIONAL WEATHER ROUNDUP
NATIONAL WEATHER SERVICE RENO NV
800 PM PDT MON AUG 03 2015

NOTE: "FAIR" INDICATES FEW OR NO CLOUDS BELOW 12,000 FEET WITH NO
SIGNIFICANT WEATHER AND/OR OBSTRUCTIONS TO VISIBILITY.

NVZ001-003-004-040400-
WESTERN NEVADA

CITY           SKY/WX    TMP DP  RH WIND       PRES   REMARKS
RENO           PTCLDY    83  34  17 NW17      29.99R
CARSON CITY    FAIR      81  37  21 W14G22    30.03R
MINDEN         FAIR      77  41  27 W6        30.03R
SLIDE MTN        N/A     57  32  38 W24         N/A
PYRAMID LAKE     N/A     88 N/A N/A SW3         N/A
FALLON         PTCLDY    88  31  13 NW9       29.91R
LOVELOCK       CLEAR     88  33  14 NW10      29.92R
HAWTHORNE      CLEAR     88  39  18 W6        29.92R
$$

NVZ002-CAZ072-073-040400-
NORTHERN AND CENTRAL SIERRA

CITY           SKY/WX    TMP DP  RH WIND       PRES   REMARKS
S. LAKE TAHOE  CLEAR     72  44  36 S6        30.16R
TRUCKEE        CLEAR     70  37  30 W8        30.15R
SQUAW VLY 8000   N/A     59  39  47 NW8         N/A
SUSANVILLE     CLEAR     81  37  21 SW9       30.00R
BLUE CANYON    CLEAR     69  47  45 SW5       30.14R
MAMMOTH LAKES  FAIR      72  32  23 NW3       30.19R
BRIDGEPORT     FAIR      70  32  24 VRB3      30.15R
$$

NVZ030-031-036-040400-
NORTHERN NEVADA

CITY           SKY/WX    TMP DP  RH WIND       PRES   REMARKS
ELKO           MOCLDY    79  40  24 S9        30.02R
WINNEMUCCA     CLEAR     81  39  22 W8        29.95R
WENDOVER       CLOUDY    75  46  35 E7        30.03S
$$

NVZ035-037-040400-
CENTRAL NEVADA

CITY           SKY/WX    TMP DP  RH WIND       PRES   REMARKS
ELY            MOCLDY    72  43  35 N12       30.14R
EUREKA           N/A     73  39  29 N6        30.11R
$$

NVZ013-014-040400-
SOUTH CENTRAL NEVADA

CITY           SKY/WX    TMP DP  RH WIND       PRES   REMARKS
TONOPAH        CLEAR     82  21  10 S9        30.02R
$$

NVZ017-020-022-040400-
SOUTHERN NEVADA

CITY           SKY/WX    TMP DP  RH WIND       PRES   REMARKS
LAS VEGAS      PTCLDY   100  27   7 SW9       29.75R
N. LAS VEGAS   CLEAR     99  31   9 SW13      29.77S
NELLIS AFB     CLEAR     99  29   8 SW15      29.74R
HENDERSON      PTCLDY    97  32  10 SW12      29.83R
MERCURY        CLEAR     93  16   6 S15       29.86S
$$



USA.gov is the U.S. government's official web portal to all federal, state and local government web resources and services.